EW9763 Weather Reports


Display with metric or nautical units.
time (UTC)temp
F
wind
direction
speed
MPH
gust
MPH
rain 1hr
in
rain 24hr
in
rain mn
in
humidity
%
barometer
mb
20260503213745 69 242 7.0 19.0 0.00 0.00 0.00 48 1001.7
20260503213246 69 233 7.0 18.0 0.00 0.00 0.00 48 1001.8
20260503212750 69 263 8.0 18.0 0.00 0.00 0.00 48 1001.7
20260503212245 68 191 8.0 17.0 0.00 0.00 0.00 48 1001.8
20260503211746 68 185 9.0 20.0 0.00 0.00 0.00 48 1001.9
20260503211246 68 230 8.0 20.0 0.00 0.00 0.00 48 1001.8
20260503210743 68 227 6.0 17.0 0.00 0.00 0.00 48 1001.9
20260503210242 68 207 9.0 21.0 0.00 0.00 0.00 48 1001.9
20260503205743 67 266 11.0 22.0 0.00 0.00 0.00 50 1002.0
20260503205513 67 201 10.0 22.0 0.00 0.00 0.00 49 1002.1
20260503204741 67 190 10.0 21.0 0.00 0.00 0.00 49 1002.1
20260503204242 67 215 10.0 22.0 0.00 0.00 0.00 49 1002.2
20260503203736 67 179 11.0 25.0 0.00 0.00 0.00 49 1002.3
20260503203234 67 195 10.0 25.0 0.00 0.00 0.00 48 1002.3
20260503202743 67 192 8.0 23.0 0.00 0.00 0.00 49 1002.4
20260503202233 67 165 10.0 22.0 0.00 0.00 0.00 49 1002.6
20260503201734 67 221 10.0 22.0 0.00 0.00 0.00 48 1002.6
20260503201234 67 201 11.0 22.0 0.00 0.00 0.00 48 1002.6
20260503200729 67 204 10.0 22.0 0.00 0.00 0.00 49 1002.7
20260503200458 67 180 9.0 19.0 0.00 0.00 0.00 49 1002.9
20260503195728 67 228 9.0 19.0 0.00 0.00 0.00 50 1003.0
20260503195228 67 196 8.0 15.0 0.00 0.00 0.00 50 1003.0
20260503194957 67 200 10.0 25.0 0.00 0.00 0.00 51 1003.0
20260503194840 66 204 11.0 25.0 0.00 0.00 0.00 50 1003.1
20260503193727 66 215 11.0 23.0 0.00 0.00 0.00 50 1003.2
20260503193221 66 219 11.0 23.0 0.00 0.00 0.00 50 1003.2
20260503192955 66 182 10.0 26.0 0.00 0.00 0.00 52 1003.3
20260503192222 66 198 11.0 26.0 0.00 0.00 0.00 51 1003.5
20260503191723 66 213 10.0 23.0 0.00 0.00 0.00 51 1003.5
20260503191225 66 232 10.0 23.0 0.00 0.00 0.00 52 1003.6
20260503190716 66 236 11.0 28.0 0.00 0.00 0.00 51 1003.6
20260503190215 65 198 12.0 28.0 0.00 0.00 0.00 52 1003.7
20260503185715 66 236 11.0 22.0 0.00 0.00 0.00 51 1003.8
20260503185215 65 180 9.0 21.0 0.00 0.00 0.00 53 1003.8
20260503184946 65 187 11.0 27.0 0.00 0.00 0.00 52 1003.7
20260503184448 65 232 11.0 27.0 0.00 0.00 0.00 52 1003.8
20260503183714 65 198 10.0 22.0 0.00 0.00 0.00 55 1003.8
20260503183213 65 212 10.0 23.0 0.00 0.00 0.00 54 1004.0
20260503182714 65 228 11.0 24.0 0.00 0.00 0.00 55 1004.1
20260503182213 64 193 11.0 24.0 0.00 0.00 0.00 58 1004.4
20260503181947 64 271 10.0 23.0 0.00 0.00 0.00 57 1004.4
20260503181445 64 215 11.0 24.0 0.00 0.00 0.00 58 1004.5
20260503180715 63 209 11.0 24.0 0.00 0.00 0.00 57 1004.6
20260503180208 64 227 12.0 26.0 0.00 0.00 0.00 56 1004.6
20260503175707 63 194 12.0 28.0 0.00 0.00 0.00 59 1004.7
20260503175212 63 213 10.0 28.0 0.00 0.00 0.00 60 1004.7
20260503174708 63 225 11.0 28.0 0.00 0.00 0.00 59 1004.9
20260503174207 63 196 13.0 28.0 0.00 0.00 0.00 59 1005.0
20260503173713 62 211 13.0 25.0 0.00 0.00 0.00 60 1005.1
20260503173205 62 223 11.0 25.0 0.00 0.00 0.00 60 1005.2
20260503172707 62 222 10.0 25.0 0.00 0.00 0.00 61 1005.3
20260503172208 61 219 12.0 25.0 0.00 0.00 0.00 61 1005.4
20260503171705 62 111 13.0 26.0 0.00 0.00 0.00 60 1005.5
20260503171205 62 223 12.0 26.0 0.00 0.00 0.00 59 1005.5
20260503170705 62 224 10.0 22.0 0.00 0.00 0.00 60 1005.7
20260503170206 62 183 11.0 24.0 0.00 0.00 0.00 59 1005.6
20260503150648 60 239 5.0 13.0 0.00 0.00 0.00 57 1006.5
20260503150146 60 225 6.0 15.0 0.00 0.00 0.00 57 1006.6
20260503140144 56 209 7.0 15.0 0.00 0.00 0.00 61 1007.2
20260503131140 53 216 4.0 11.0 0.00 0.00 0.00 65 1007.5
20260503130635 53 207 3.0 10.0 0.00 0.00 0.00 66 1007.6
20260503130409 53 237 4.0 10.0 0.00 0.00 0.00 66 1007.7
20260503120127 51 196 3.0 8.0 0.00 0.00 0.00 67 1007.7
20260503110622 50 171 7.0 10.0 0.00 0.00 0.00 64 1007.9
20260503110616 50 265 6.0 10.0 0.00 0.00 0.00 63 1008.1
20260503100113 51 219 3.0 9.0 0.00 0.00 0.00 61 1008.5
20260503081551 52 209 5.0 13.0 0.00 0.00 0.00 64 1009.1
20260503081044 52 192 5.0 10.0 0.00 0.00 0.00 64 1009.2
20260503080545 51 202 6.0 11.0 0.00 0.00 0.00 64 1009.2
20260503072538 45 193 3.0 6.0 0.00 0.00 0.00 80 1009.5
20260503072038 45 195 3.0 6.0 0.00 0.00 0.00 80 1009.6
20260503071538 45 174 2.0 6.0 0.00 0.00 0.00 80 1009.8
20260503071308 44 132 2.0 3.0 0.00 0.00 0.00 80 1009.8
20260503070534 44 113 2.0 3.0 0.00 0.00 0.00 80 1009.9
20260503055014 43 175 2.0 4.0 0.00 0.00 0.00 79 1010.5
20260503054748 42 171 3.0 6.0 0.00 0.00 0.00 79 1010.5
20260503054010 42 179 4.0 6.0 0.00 0.00 0.00 80 1010.5
20260503053508 42 180 3.0 6.0 0.00 0.00 0.00 79 1010.6
20260503053236 41 178 2.0 5.0 0.00 0.00 0.00 79 1010.7
20260503052507 41 169 1.0 5.0 0.00 0.00 0.00 79 1010.8
20260503052007 41 154 1.0 2.0 0.00 0.00 0.00 78 1010.8
20260503051507 41 154 2.0 3.0 0.00 0.00 0.00 78 1010.8
20260503051235 41 154 2.0 3.0 0.00 0.00 0.00 78 1010.9
20260503050505 41 155 2.0 3.0 0.00 0.00 0.00 78 1010.9
20260503050008 41 155 2.0 5.0 0.00 0.00 0.00 77 1010.9
20260503045734 41 157 2.0 5.0 0.00 0.00 0.00 77 1010.9
20260503045001 41 158 2.0 5.0 0.00 0.00 0.00 77 1011.0
20260503044502 41 160 2.0 5.0 0.00 0.00 0.00 77 1011.0
20260503044235 41 162 2.0 5.0 0.00 0.00 0.00 76 1011.1
20260503043730 41 158 2.0 5.0 0.00 0.00 0.00 76 1011.2
20260503042958 41 154 3.0 6.0 0.00 0.00 0.00 76 1011.2
20260503042730 41 167 3.0 6.0 0.00 0.00 0.00 75 1011.3
20260503041959 42 146 3.0 5.0 0.00 0.00 0.00 75 1011.3
20260503041500 42 157 2.0 5.0 0.00 0.00 0.00 75 1011.3
20260503040958 42 153 2.0 5.0 0.00 0.00 0.00 74 1011.4
20260503040459 42 153 3.0 6.0 0.00 0.00 0.00 74 1011.4
20260503035955 42 159 3.0 7.0 0.00 0.00 0.00 74 1011.5
20260503035454 42 174 3.0 7.0 0.00 0.00 0.00 73 1011.6
20260503034954 42 153 4.0 7.0 0.00 0.00 0.00 73 1011.7
20260503034726 42 149 4.0 7.0 0.00 0.00 0.00 73 1011.7
20260503033956 42 159 4.0 7.0 0.00 0.00 0.00 72 1011.7
20260503033454 42 147 4.0 12.0 0.00 0.00 0.00 72 1011.7
20260503032956 42 155 5.0 12.0 0.00 0.00 0.00 72 1011.9
20260503032723 43 157 5.0 11.0 0.00 0.00 0.00 71 1011.9
20260503031950 43 157 4.0 10.0 0.00 0.00 0.00 71 1012.0
20260503031722 43 153 4.0 10.0 0.00 0.00 0.00 70 1012.0
20260503030951 43 155 5.0 9.0 0.00 0.00 0.00 70 1012.0
20260503030450 43 160 5.0 11.0 0.00 0.00 0.00 69 1012.1
20260503025951 43 178 4.0 9.0 0.00 0.00 0.00 69 1012.2
20260503025446 43 142 5.0 11.0 0.00 0.00 0.00 69 1012.1
20260503024946 44 151 5.0 11.0 0.00 0.00 0.00 68 1012.2
20260503024447 44 156 5.0 11.0 0.00 0.00 0.00 68 1012.3
20260503023946 44 142 6.0 12.0 0.00 0.00 0.00 68 1012.3
20260503023717 44 142 6.0 12.0 0.00 0.00 0.00 68 1012.3
20260503022947 44 159 5.0 10.0 0.00 0.00 0.00 67 1012.3
20260503022446 44 146 5.0 11.0 0.00 0.00 0.00 67 1012.4
20260503021946 44 150 6.0 11.0 0.00 0.00 0.00 66 1012.4
20260503021717 44 149 6.0 10.0 0.00 0.00 0.00 66 1012.4
20260503020946 45 157 6.0 12.0 0.00 0.00 0.00 65 1012.4
20260503020447 45 182 6.0 12.0 0.00 0.00 0.00 66 1012.4
20260503015943 45 146 5.0 10.0 0.00 0.00 0.00 65 1012.4
20260503015442 45 155 5.0 9.0 0.00 0.00 0.00 64 1012.4
20260503015214 46 140 5.0 9.0 0.00 0.00 0.00 63 1012.4
20260503014442 46 149 5.0 12.0 0.00 0.00 0.00 62 1012.4
20260503014214 46 151 6.0 13.0 0.00 0.00 0.00 62 1012.4
20260503013443 46 158 6.0 13.0 0.00 0.00 0.00 62 1012.4
20260503012937 46 152 6.0 13.0 0.00 0.00 0.00 62 1012.3
20260503012433 47 146 6.0 11.0 0.00 0.00 0.00 62 1012.4
20260503011934 47 158 6.0 11.0 0.00 0.00 0.00 62 1012.3
20260503011433 47 157 6.0 13.0 0.00 0.00 0.00 62 1012.3
20260503010928 47 153 6.0 13.0 0.00 0.00 0.00 61 1012.3
20260503010427 48 152 6.0 10.0 0.00 0.00 0.00 60 1012.3
20260503005929 48 161 7.0 13.0 0.00 0.00 0.00 59 1012.4
20260503005428 48 154 7.0 13.0 0.00 0.00 0.00 59 1012.3
20260503005201 49 143 7.0 13.0 0.00 0.00 0.00 59 1012.3
20260503004701 49 133 6.0 13.0 0.00 0.00 0.00 59 1012.3
20260503003929 49 150 5.0 11.0 0.00 0.00 0.00 60 1012.4
20260503003424 50 157 6.0 13.0 0.00 0.00 0.00 59 1012.3
20260503002924 50 161 8.0 13.0 0.00 0.00 0.00 58 1012.3
20260503002424 50 178 7.0 14.0 0.00 0.00 0.00 57 1012.3
20260503002156 51 175 8.0 16.0 0.00 0.00 0.00 56 1012.3
20260503001424 51 157 9.0 16.0 0.00 0.00 0.00 56 1012.4
20260503000923 51 141 8.0 15.0 0.00 0.00 0.00 58 1012.4
20260503000656 51 158 7.0 13.0 0.00 0.00 0.00 58 1012.5
20260502235919 51 131 8.0 12.0 0.00 0.00 0.00 58 1012.5
20260502235416 51 143 7.0 12.0 0.00 0.00 0.00 57 1012.5
20260502234915 52 126 7.0 14.0 0.00 0.00 0.00 58 1012.5
20260502234647 52 169 8.0 17.0 0.00 0.00 0.00 57 1012.5
20260502233913 52 128 8.0 17.0 0.00 0.00 0.00 56 1012.5
20260502233413 53 150 9.0 17.0 0.00 0.00 0.00 56 1012.6
20260502232907 53 136 10.0 19.0 0.00 0.00 0.00 55 1012.6
20260502232407 54 142 9.0 19.0 0.00 0.00 0.00 53 1012.5
20260502231908 55 162 7.0 14.0 0.00 0.00 0.00 51 1012.6
20260502231408 57 153 5.0 14.0 0.00 0.00 0.00 44 1012.6
20260502230909 57 172 4.0 12.0 0.00 0.00 0.00 39 1012.5
20260502230640 58 204 4.0 8.0 0.00 0.00 0.00 38 1012.5
20260502225910 58 198 4.0 8.0 0.00 0.00 0.00 40 1012.6
20260502225401 58 183 4.0 10.0 0.00 0.00 0.00 40 1012.7
20260502224902 58 232 5.0 10.0 0.00 0.00 0.00 41 1012.8
20260502224401 58 215 4.0 8.0 0.00 0.00 0.00 40 1012.8
20260502224130 58 235 4.0 10.0 0.00 0.00 0.00 40 1012.8
20260502223359 58 191 5.0 12.0 0.00 0.00 0.00 39 1012.9
20260502222900 58 193 5.0 12.0 0.00 0.00 0.00 39 1012.9
20260502222356 59 192 4.0 10.0 0.00 0.00 0.00 38 1012.9
20260502221856 59 202 4.0 9.0 0.00 0.00 0.00 40 1013.0
20260502221353 59 193 4.0 10.0 0.00 0.00 0.00 39 1013.0
20260502220854 59 192 4.0 10.0 0.00 0.00 0.00 39 1013.0
20260502220353 59 201 3.0 7.0 0.00 0.00 0.00 40 1013.1
20260502215854 59 271 3.0 10.0 0.00 0.00 0.00 39 1013.1
20260502215349 59 184 3.0 10.0 0.00 0.00 0.00 38 1013.1
20260502214845 59 208 3.0 8.0 0.00 0.00 0.00 39 1013.2
20260502214345 59 190 3.0 8.0 0.00 0.00 0.00 40 1013.3